Location: Unspecified
(30.1907°N, 0.0000°E)
Time: 06:26:17
(UTC+00:00)

Explorer 20 - Visible Passes

Search period start: 04 April 2026 00:00
Search period end: 14 April 2026 00:00
Orbit: 851 x 993 km, 79.9° (Epoch: 29 March)

Date Brightness Start Highest point End Pass type
(mag) Time Alt. Az. Time Alt. Az. Time Alt. Az.
7 Apr 9.2 21:20:26 10° NNE 21:20:52 12° NNE 21:20:52 12° NNE visible
8 Apr 9.0 21:29:29 10° N 21:30:30 15° N 21:30:30 15° N visible
9 Apr 8.9 21:38:44 10° N 21:40:10 18° N 21:40:10 18° N visible
10 Apr 8.9 21:48:07 10° NNW 21:49:50 21° NNW 21:49:50 21° NNW visible
11 Apr 8.8 20:15:09 10° NE 20:15:59 12° NE 20:15:59 12° NE visible
11 Apr 8.9 21:57:40 10° NNW 21:59:33 21° NNW 21:59:33 21° NNW visible
12 Apr 8.5 20:23:32 10° NNE 20:25:44 18° NE 20:25:44 18° NE visible
12 Apr 9.0 22:07:24 10° NNW 22:09:18 20° NW 22:09:18 20° NW visible
13 Apr 8.1 20:32:22 10° NNE 20:35:31 26° NE 20:35:31 26° NE visible
13 Apr 9.2 22:17:23 10° NW 22:19:04 17° NW 22:19:04 17° NW visible
